Theta_e
290 291 291 290 289 290 288 289 285 288 289 294 296 297 299 301 305 308 314 323 326 326 330 332 334 332 330 327 325 323 319 318 316 314 313 312 312 313 313 312 309 309 307 305
288 291 291 289 290 291 290 290 289 290 290 298 299 300 300 301 305 306 310 319 325 327 330 331 329 328 326 324 322 321 318 315 315 314 313 312 313 312 312 309 306 305 304 303
284 290 290 285 289 290 291 293 293 289 293 297 298 299 298 300 304 307 311 315 321 325 324 329 327 325 323 321 321 319 316 315 314 314 312 312 313 312 310 306 304 301 300 299
283 286 278 291 297 294 292 293 296 295 296 298 299 301 302 302 303 306 312 314 319 324 323 326 327 324 322 321 318 316 315 314 314 313 312 312 312 310 309 306 303 300 297 295
283 283 287 292 290 290 289 289 296 294 296 297 299 303 296 302 305 306 308 313 320 327 323 324 323 321 320 319 317 315 313 313 313 313 312 312 310 309 309 306 302 299 297 293
286 281 273 285 293 298 297 287 295 296 296 296 299 295 291 308 310 312 312 312 323 326 323 323 323 323 319 316 315 313 313 314 313 313 313 311 309 308 307 307 304 301 295 291
285 284 288 293 295 297 287 285 294 296 297 299 297 301 305 311 311 311 309 313 320 326 323 323 324 322 317 315 313 314 315 314 313 314 312 310 308 308 308 309 304 297 294 292
287 284 281 296 293 286 290 294 296 297 299 299 302 307 309 312 312 312 310 314 316 322 324 324 322 320 315 313 314 315 314 313 312 312 313 311 308 307 307 307 302 298 295 294
288 286 295 298 297 297 297 296 297 297 299 301 304 308 312 310 313 312 309 316 320 317 316 318 319 316 313 313 314 313 312 311 311 313 311 309 309 307 307 307 304 300 297 293
288 290 293 295 299 300 299 297 298 300 304 306 308 311 310 312 313 315 315 314 318 315 314 314 315 314 312 313 313 312 311 311 311 309 309 309 308 308 307 306 303 300 297 293
288 291 294 295 298 298 297 298 298 301 304 305 311 311 311 311 312 314 315 315 315 312 312 312 313 312 313 313 313 311 311 311 307 303 298 293 289 293 299 295 305 304 300 291
288 290 293 294 298 298 296 296 298 299 303 305 313 311 312 310 312 313 311 311 310 310 310 310 312 312 313 314 313 311 307 303 301 299 295 292 290 289 290 292 293 293 292 290
291 293 297 298 298 298 295 296 299 302 304 306 311 314 310 310 311 309 310 311 310 310 311 312 312 312 313 313 313 308 305 301 299 296 294 292 292 291 287 288 290 289 289 289
295 295 293 295 293 296 296 297 300 304 304 308 310 311 314 313 312 310 309 309 311 311 311 312 312 311 312 313 310 306 303 299 299 297 295 293 292 291 290 289 286 284 287 287
294 295 294 295 295 294 295 296 296 300 301 304 307 309 312 312 311 311 311 311 311 311 311 311 310 310 312 311 309 306 304 303 301 299 297 295 292 292 290 288 286 285 285 287
293 294 292 292 292 293 293 293 294 297 299 300 302 304 306 310 312 311 311 311 308 307 310 311 310 312 312 311 309 307 305 299 300 300 298 297 296 293 290 287 286 286 287 286
288 290 290 290 291 291 291 293 294 295 298 298 299 302 304 307 308 307 307 308 309 309 311 310 310 313 311 310 309 308 305 303 297 302 299 299 298 294 291 289 288 288 288 289
293 293 293 292 291 291 291 292 292 293 294 297 298 300 300 301 300 300 301 302 303 303 304 308 310 310 310 309 308 307 306 304 305 303 303 301 299 296 294 292 291 291 289 287
293 292 292 291 291 291 291 290 291 292 294 295 295 294 294 295 297 299 300 300 300 298 298 301 297 300 300 301 305 306 305 305 305 304 303 297 299 298 297 294 291 290 290 290
292 293 292 291 291 290 290 290 291 290 291 293 292 292 290 289 293 294 293 290 291 292 296 298 299 300 302 300 299 304 305 303 303 303 302 301 300 299 297 292 293 291 291 291
291 291 291 290 289 289 289 289 289 288 289 289 288 287 287 286 287 289 292 289 288 291 292 293 297 300 300 300 303 305 304 302 303 303 301 301 300 300 298 295 293 292 292 291
291 290 291 291 289 288 289 288 288 288 287 288 287 287 287 287 287 287 287 286 288 287 291 291 292 289 294 294 302 304 305 303 303 303 302 301 300 300 299 296 294 293 293 291
292 292 291 291 289 288 289 288 287 286 285 285 285 285 285 285 285 286 286 286 288 287 290 289 287 288 289 298 299 300 302 303 303 302 302 301 301 300 299 296 295 295 293 291
293 291 290 290 291 289 286 287 288 287 287 286 285 285 285 285 285 285 286 286 286 287 287 287 287 287 290 295 296 297 299 300 301 301 300 295 300 299 298 296 296 296 294 292
293 292 290 287 286 287 287 287 287 287 286 285 285 286 285 286 285 285 286 286 285 287 287 286 286 287 292 294 295 296 297 297 298 299 299 298 298 298 297 297 296 294 293 291
292 291 289 287 285 286 288 287 286 286 286 285 286 286 287 286 286 286 286 286 287 287 288 289 289 289 290 292 293 294 295 296 297 297 297 297 297 297 297 295 293 293 291 290
292 291 289 287 286 285 285 285 283 283 286 287 286 287 287 288 287 287 287 287 286 287 288 289 290 289 291 291 292 293 294 296 293 295 294 295 295 295 295 295 293 292 291 290
Wind_Speed
17 19 17 19 25 18 17 16 11 12 17 11 1 3 4 22 9 8 8 11 14 16 13 15 18 16 18 17 16 15 16 15 15 15 13 11 10 10 9 10 9 10 10 7
11 16 18 23 22 18 17 19 19 15 17 9 9 5 5 13 6 6 8 8 6 14 15 24 21 20 22 18 16 15 13 15 15 16 14 11 11 11 12 11 9 10 7 7
5 6 8 10 14 12 10 14 13 12 15 7 6 5 6 7 3 0 3 7 2 11 14 19 20 21 20 22 18 18 14 14 17 16 13 12 12 12 12 10 8 8 7 6
4 5 4 2 5 11 14 16 12 14 13 12 9 9 9 5 6 7 5 5 12 12 15 15 17 18 18 19 20 21 16 14 15 16 13 12 12 12 10 9 10 7 7 5
3 3 9 4 6 10 10 11 8 19 16 15 15 11 6 8 8 8 9 4 7 18 19 22 19 20 17 16 17 20 18 14 16 16 15 13 13 13 10 10 9 5 6 6
2 4 5 1 8 19 7 5 17 20 21 17 14 6 5 3 6 9 8 6 12 12 23 24 19 17 19 18 15 18 19 16 15 15 14 14 13 13 9 11 10 7 6 6
4 5 4 5 10 11 6 5 20 18 18 17 9 7 9 15 11 8 6 9 11 13 18 24 23 19 16 19 20 19 19 15 14 13 13 13 11 9 9 12 10 8 7 5
4 5 5 4 2 2 6 15 18 18 15 16 15 15 15 11 15 11 9 8 11 15 16 18 21 22 20 16 16 19 18 16 14 14 11 10 12 7 8 11 11 9 6 5
6 7 1 4 6 6 12 19 19 17 17 16 16 14 7 7 9 8 9 12 11 19 3 16 16 16 18 20 21 18 17 16 15 13 11 9 11 10 9 10 9 7 6 5
4 3 7 11 6 6 9 15 17 17 16 15 17 11 4 4 3 8 11 8 16 29 15 11 13 14 15 19 21 21 17 16 13 12 11 8 6 7 8 8 8 8 6 5
7 11 10 3 7 10 14 16 16 16 14 14 8 5 2 3 6 9 14 12 14 17 20 20 17 17 18 17 20 19 17 14 11 9 10 8 7 3 5 3 8 9 7 7
6 5 7 11 12 12 15 17 16 16 16 17 5 9 5 8 7 9 14 15 17 14 16 15 19 17 17 19 19 18 14 11 10 10 8 8 7 5 15 7 11 9 12 9
5 3 6 12 9 8 15 16 16 15 13 9 3 5 6 10 9 13 12 14 14 24 17 13 18 17 14 15 18 17 13 13 10 10 8 9 8 9 9 9 16 12 13 11
3 3 6 4 8 12 13 15 16 11 12 4 5 5 7 9 9 12 14 14 12 13 15 24 14 16 15 15 16 16 14 15 10 9 8 7 7 8 8 9 8 4 5 5
4 5 3 8 9 10 12 12 14 12 12 9 6 5 7 12 9 11 13 13 14 14 13 15 18 13 10 13 16 16 13 9 9 8 7 7 7 7 6 6 6 6 4 3
5 4 6 7 10 9 10 13 12 13 13 13 8 6 5 7 12 12 12 14 15 11 12 11 11 10 7 11 14 11 11 16 11 8 8 8 7 7 6 5 5 6 5 4
3 4 6 7 10 10 9 10 10 9 9 9 9 7 7 12 12 12 10 9 10 12 12 12 12 10 10 11 12 8 9 10 11 9 9 9 8 7 6 5 5 5 5 3
6 3 4 5 7 9 9 10 10 10 10 8 9 9 12 13 13 13 13 15 14 13 9 10 11 10 10 10 10 7 8 9 9 9 8 8 7 7 7 5 5 5 3 3
5 6 7 8 8 8 8 8 8 8 10 10 9 12 12 13 11 12 13 15 14 14 8 9 14 11 8 7 9 7 8 10 9 8 9 9 8 7 7 6 5 5 5 8
6 7 8 9 9 9 8 9 8 8 9 9 9 12 14 12 12 13 16 16 10 6 7 9 12 10 9 9 9 6 6 8 9 9 8 8 8 8 7 7 7 6 5 8
6 6 7 8 8 8 8 8 7 9 8 9 9 10 10 10 11 7 13 11 8 8 9 13 9 7 6 6 7 5 5 6 9 10 10 9 9 8 9 7 6 6 5 7
5 5 7 8 8 7 8 8 8 8 9 9 9 9 9 12 12 12 10 7 3 7 8 7 6 8 7 9 6 4 5 6 7 7 8 9 8 8 8 7 6 6 7 8
5 6 6 8 9 8 8 8 9 9 10 9 9 9 8 6 5 5 7 6 5 7 7 6 7 10 9 8 7 6 5 6 6 6 7 7 8 8 8 9 7 8 9 8
7 8 7 5 8 8 8 7 8 9 9 9 9 8 5 6 7 5 4 5 8 8 7 6 7 10 9 6 6 7 5 3 4 4 4 8 8 7 8 8 9 8 8 9
10 10 8 6 7 5 7 6 6 6 7 8 8 7 6 5 5 2 4 4 7 7 6 8 9 8 5 5 4 5 5 4 4 3 4 5 8 8 7 8 9 9 8 8
11 7 5 6 6 5 4 3 3 3 4 5 5 5 5 5 5 5 4 5 5 5 4 3 4 4 4 4 4 4 4 4 4 4 3 4 4 5 7 7 8 9 9 8
8 8 7 6 4 4 4 4 4 3 3 3 4 3 3 4 4 3 4 3 2 1 2 3 3 3 3 3 3 3 3 1 4 3 2 2 3 4 5 6 7 8 9 9
Wind_Direction
247 260 276 276 277 278 280 273 263 298 280 302 339 201 278 281 279 11 354 179 170 159 161 141 126 138 130 128 127 129 127 136 139 130 121 126 138 125 116 102 107 110 104 95
270 260 255 258 269 276 272 277 278 274 279 252 244 255 291 279 357 6 54 8 183 158 158 137 146 143 134 130 128 122 136 128 135 130 131 140 132 121 109 112 108 103 102 115
264 346 298 274 276 290 313 292 290 284 288 201 270 295 265 261 226 285 113 125 316 172 143 140 141 145 138 131 141 129 129 153 142 131 134 144 128 116 121 114 109 107 107 115
284 327 263 194 34 360 316 301 303 336 357 323 326 298 258 223 212 219 227 197 161 184 137 132 132 130 135 142 144 136 150 157 130 133 144 133 124 119 120 119 120 120 115 112
278 266 291 209 7 326 307 296 350 330 337 332 347 323 218 191 208 220 196 198 166 172 146 132 134 129 135 143 147 139 142 148 150 143 147 130 126 131 127 124 118 118 115 120
234 277 260 48 301 320 289 249 4 341 324 333 333 326 286 297 220 223 208 166 126 143 148 137 142 151 143 147 153 145 146 156 152 144 138 131 133 140 141 127 121 115 106 104
264 258 265 3 347 326 277 318 327 314 305 306 298 265 290 281 268 243 217 150 104 143 167 164 159 159 156 152 151 149 135 146 151 140 132 134 134 146 126 120 118 110 108 92
275 270 266 33 39 331 300 302 298 302 302 288 285 279 268 247 250 212 191 140 110 107 190 160 160 161 152 147 142 131 141 143 139 136 143 139 138 136 116 123 124 115 109 93
205 245 196 2 262 222 284 293 300 302 296 293 283 283 239 259 250 218 129 139 138 107 74 141 155 155 154 144 136 134 134 140 142 141 134 135 143 133 132 134 126 128 133 121
356 253 293 306 273 280 304 294 300 303 298 303 288 215 196 240 335 154 138 127 147 128 130 148 150 140 137 135 134 132 139 139 140 123 126 125 122 149 142 138 136 144 144 146
254 278 305 281 295 316 316 313 313 312 311 310 262 131 185 76 70 102 117 120 125 124 136 148 144 139 136 138 138 135 134 136 119 108 101 90 64 38 123 95 152 164 162 157
252 252 270 284 305 323 320 318 318 318 320 319 196 144 141 97 89 97 106 116 111 107 116 127 126 134 139 140 133 129 127 123 123 120 116 114 111 84 40 62 118 119 126 148
241 233 263 291 311 333 320 320 318 313 315 308 42 128 141 115 100 95 101 112 123 121 109 113 126 129 132 133 129 129 131 128 117 118 124 131 133 127 109 51 62 78 115 118
265 310 297 329 316 333 328 328 325 339 337 317 87 63 121 113 117 119 117 110 111 120 116 127 131 124 133 138 124 123 119 119 125 131 137 135 136 128 127 131 132 114 31 127
102 66 329 314 330 341 335 346 354 352 348 11 30 46 122 131 122 118 123 118 107 103 109 116 115 109 127 126 120 124 124 126 123 126 138 138 132 122 120 127 137 143 121 73
129 57 358 342 331 349 354 358 352 351 7 3 1 15 19 122 117 113 126 132 129 128 106 95 107 103 133 122 111 126 130 132 133 137 143 142 137 131 131 139 145 143 139 137
12 359 347 346 337 349 5 352 354 354 7 6 5 4 60 104 104 105 97 96 112 123 130 132 135 158 154 119 134 142 131 141 142 142 143 143 148 141 137 144 150 140 132 154
94 61 31 12 347 347 4 7 1 360 6 2 30 50 68 84 97 97 102 101 90 76 74 124 139 148 137 140 130 131 134 144 152 150 143 147 142 135 138 145 148 136 128 103
77 62 42 30 8 1 4 8 10 2 14 14 41 57 59 58 66 83 92 90 92 89 47 93 97 92 86 106 120 133 135 143 149 149 153 139 139 133 144 151 145 148 137 136
69 68 54 42 29 19 14 12 19 26 18 31 36 61 62 48 62 69 77 65 50 47 42 60 77 72 76 76 91 112 124 131 137 147 145 142 137 140 146 147 149 147 138 140
109 85 70 58 39 27 23 20 26 39 46 52 55 46 74 60 47 47 78 79 17 42 52 52 51 63 60 75 76 95 112 122 135 146 149 149 144 146 150 151 144 140 133 135
156 121 92 79 58 38 26 36 39 43 53 60 58 59 63 74 74 64 47 75 59 57 64 46 37 39 58 67 63 67 86 105 114 131 142 147 144 152 155 149 146 142 140 142
146 128 108 90 81 64 45 39 45 48 51 52 53 62 63 61 41 68 79 5 52 67 73 58 25 37 45 57 57 50 64 107 118 118 134 145 155 173 162 159 159 145 148 150
134 120 117 103 103 82 62 42 48 54 61 55 57 48 52 79 61 43 63 59 64 64 67 59 46 39 33 44 44 49 45 79 111 121 130 157 170 166 151 155 151 145 151 143
139 130 124 118 112 99 94 80 64 52 57 62 56 45 45 40 90 65 56 45 46 51 42 34 45 38 39 40 33 37 23 27 59 108 160 154 158 156 149 147 140 140 143 149
136 138 141 142 134 127 124 97 88 73 76 68 56 55 60 63 75 72 67 55 54 50 53 38 42 36 32 36 30 30 10 27 55 49 53 73 102 127 134 127 132 140 141 142
111 115 118 116 116 137 138 143 129 125 105 98 91 84 87 74 74 72 74 64 53 36 51 58 55 17 7 24 350 338 352 44 66 82 88 91 104 110 113 126 132 136 134 139